Regional Weather Roundup
Issued by NWS Upton, NY

Current Version | Previous Version | Graphics & Text | Print | Product List | Glossary Off
Versions: 1 2 3 4 5 6 7 8 9 10 11 12 13 14 15 16 17 18 19 20 21 22 23 24 25 26 27 28 29 30 31 32 33 34 35 36 37 38 39 40 41 42 43 44 45 46 47 48 49 50

000
ASUS41 KOKX 161408
RWROKX

REGIONAL WEATHER ROUNDUP
NATIONAL WEATHER SERVICE NEW YORK NY
900 AM EST SAT DEC 16 2017

NOTE: "FAIR" INDICATES FEW OR NO CLOUDS BELOW 12,000 FEET WITH NO
SIGNIFICANT WEATHER AND/OR OBSTRUCTIONS TO VISIBILITY.

NYZ071-072-176-178-NJZ106-104-161500-
NEW YORK CITY METRO AREA

CITY           SKY/WX    TMP DP  RH WIND       PRES   REMARKS
Central Park   PTSUNNY   28  17  63 W10G25    30.07R WCI  19
Bronx Bot Gard   N/A     30  18  59 SW20      30.07R WCI  18
Bronx Lehman C   N/A     28  18  64 SW7         N/A  WCI  21
LaGuardia APRT PTSUNNY   30  17  58 SW16G25   30.06R WCI  19
Queens College   N/A     30  19  64 W14         N/A  WCI  20
Kennedy INTL   PTSUNNY   31  21  66 W17       30.08R WCI  19
Breezy Point     N/A    N/A N/A N/A W15G23      N/A
Brooklyn Coll    N/A     30  18  59 SW10        N/A  WCI  21
Staten Island    N/A     28  19  69 SW8         N/A  WCI  20
Newark/Liberty PTSUNNY   27  18  69 SW14      30.08R WCI  16
Teterboro      CLOUDY    28  17  63 S12       30.06R WCI  18
$$

NYZ177-179-078>081-161500-
LONG ISLAND NEW YORK

CITY           SKY/WX    TMP DP  RH WIND       PRES   REMARKS
Jones Beach      N/A     32 N/A N/A W20G30      N/A  WCI  20
Wantagh          N/A     32  19  59 W10         N/A  WCI  24
Matinecock PT    N/A     32 N/A N/A SW24        N/A  WCI  19
Farmingdale    SUNNY     28  17  63 W14       30.06R WCI  17
MacArthur/ISP  PTSUNNY   28  18  66 W15       30.04R WCI  16
Shirley        SUNNY     28  19  69 W15G22    30.05R WCI  16
Mt Sinai Harb    N/A    N/A N/A N/A SW8G14      N/A
Westhampton    SUNNY     27  19  72 W15       30.04R WCI  15
East Hampton   FAIR      30  17  58 W14G28    30.00R HAZE    WCI  19
Southold         N/A     32  21  64 W7          N/A  WCI  26
Montauk          N/A     33  24  69 W13G20    30.00R WCI  24
$$

NYZ052-065-067-161500-
HUDSON VALLEY

CITY           SKY/WX    TMP DP  RH WIND       PRES   REMARKS
White Plains   SUNNY     26  15  63 SW8       30.01R WCI  18
Larchmont Harb   N/A    N/A N/A N/A SW18G24     N/A
Croton On Huds   N/A    N/A N/A N/A SW12        N/A
Somers           N/A     25  16  68 SW6         N/A  WCI  18
Brewster         N/A     23  18  80 S2          N/A
Newburgh       PTSUNNY   23  18  80 W9        30.00R WCI  13
Montgomery     CLOUDY    21  15  78 SW8       29.99R WCI  11
Otisville        N/A     23  16  74 SW5         N/A  WCI  17
Warwick          N/A     28  16  59 W8          N/A  WCI  20
Suffern          N/A     25  16  68 SW6         N/A  WCI  18
Poughkeepsie   MOSUNNY   24  14  65 SW5       30.00R WCI  18
Albany         MOSUNNY   20  14  77 CALM      29.93R
$$

NJZ001-105-106-008-010-013-015-019>022-104-161500-
NEW JERSEY

CITY           SKY/WX    TMP DP  RH WIND       PRES   REMARKS
Newark/Liberty PTSUNNY   27  18  69 SW14      30.08R WCI  16
Teterboro      CLOUDY    28  17  63 S12       30.06R WCI  18
Caldwell       CLOUDY    24  17  74 VRB6      30.06R WCI  17
Somerville     CLOUDY    20  19  96 CALM      30.06R FOG
Linden         CLOUDY    28  17  65 W6        30.08R WCI  21
Perth Amboy      N/A    N/A N/A N/A W12         N/A
Sussex         MOSUNNY   20  16  84 S8        30.00R WCI  10
Andover        NOT AVBL
Trenton        SUNNY     25  19  78 SW7       30.08R WCI  17
Millville      CLOUDY    31  28  89 SW6       30.15R WCI  25
Atlantic City  SUNNY     29  23  78 SW8       30.13R WCI  21
Wrightstown    MOSUNNY   24  19  79 SW9       30.07R WCI  14
Toms River     MOSUNNY   23  19  85 SW7       30.12R WCI  15
Belmar         PTSUNNY   27  22  81 SW8       30.10R WCI  19
$$

PAZ047>061-062-071-161500-
EASTERN PENNSYLVANIA

CITY           SKY/WX    TMP DP  RH WIND       PRES   REMARKS
Philadelphia   CLOUDY    28  22  78 SW15      30.13R WCI  16
Allentown      CLOUDY    28  17  63 SW12      30.05R WCI  18
Scranton       CLOUDY    24  17  74 SW9       29.96R WCI  14
$$

CTZ002-004>006-009-010-012-RIZ004-006-007-MAZ004-011-015-161500-
SOUTHERN NEW ENGLAND
 IN CT

CITY           SKY/WX    TMP DP  RH WIND       PRES   REMARKS
Bradley INTL   MOSUNNY   18  14  84 S6        29.97R WCI  10
Hartford       SUNNY     23  17  78 VRB3      29.99R
Danbury        SUNNY     24  15  68 SW8       30.00R WCI  15
Wtrbury/Oxford SUNNY     25  18  74 VRB3      29.97R
Norwalk Harbor   N/A    N/A N/A N/A SW20        N/A
Bridgeport     SUNNY     29  19  66 W15G28    30.02R WCI  18
Meriden        SUNNY     22  16  78 SE6       30.00R WCI  14
New Haven      MOSUNNY   28  18  66 W17G25    30.01R WCI  16
Chester        FAIR      27  16  63 W7G15     29.97R WCI  19
Groton         SUNNY     27  16  63 W13       29.99R WCI  16
Wilimantic     SUNNY     12   9  87 CALM      29.99R

 IN RI

CITY           SKY/WX    TMP DP  RH WIND       PRES   REMARKS
Providence     SUNNY     23  16  74 W15       29.96R WCI  10
Block Island   MOSUNNY   34  20  56 W15G28    29.98R WCI  24
Westerly       SUNNY     28  18  66 VRB7G17   29.99R WCI  21
 IN MA

CITY           SKY/WX    TMP DP  RH WIND       PRES   REMARKS
Boston         MOSUNNY   26  16  65 W15       29.92R WCI  14
Worcester      SUNNY     19  11  70 W17       29.86R WCI   4
Westfield      SUNNY     14  12  92 S6        29.95R WCI   5
Provincetown   SUNNY     29  21  72 W21G28    29.91R WCI  16
Nantucket      SUNNY     29  21  72 W14G26    29.94R WCI  18
$$

ANZ330-335-338-340-345-350-353-355-161500-
COASTAL MARINE OBSERVATIONS


STATION/POSITION TIME  SKY/WX   TEMP    WIND        PRES    VSBY  WAVE
                                AIR SEA DIR/SP/G                  HT/PER
                 (UTC)          (F)     (DEG/KT/KT) (MB)    (MI)  (FT/S)
NY HARB ENTRANCE 1250            34 50  260/ 21/ 27 1017.0          3/ 4
20 S FIRE ISLAND 1250            35 51  280/ 23/ 31 1017.2          7/ 6
GREAT SOUTH BAY  NOT AVBL
HUDSON CANYON    1250            39 56  300/ 27/ 31 1017.2         12/ 8
KINGS POINT      1330            31 42  280/ 13/ 16 1018.3
EXECUTION ROCKS  1330            34     220/ 17/ 23   N/A
WESTERN LI SOUND NOT AVBL
CENTRAL LI SOUND NOT AVBL
ROBBINS REEF     1336            28     250/ 16/ 20 1018.8
$$


>>>>>>>>>>>>>>>>>>>>>>>>>>>> KEY <<<<<<<<<<<<<<<<<<<<<<<<<<<
>                                                          <
>     SKY/WX - Sky Condition/Present Weather               <
>     TMP    - Temperature in Fahrenheit                   <
>     DP     - Dew Point in Fahrenheit                     <
>     RH     - Relative Humidity in Percent                <
>     WIND   - Direction (from) and Speed in MPH           <
>     PRES   - Mean Sea Level Pressure (inches of Hg)      <
>     WCI    - Wind Chill Index                            <
>     VSB    - VISIBILITY IN MILES                         <
>     HX     - HEAT INDEX                                  <
>     TC     - TEMPERATURE IN CELSIUS                      <
>     VRB    - VARIABLE WIND DIRECTION                     <
>                                                          <
>>>>>>>>>>>>>>>>>>>>>>>>>>>> KEY <<<<<<<<<<<<<<<<<<<<<<<<<<<



USA.gov is the U.S. government's official web portal to all federal, state and local government web resources and services.